loading
DOY 175 | 2024-06-23T10:52:59Z
DECAYED
Showing default

FOSSASAT2E14 (FEROX), 56936 (Decayed)

Orbit data source: Space-Track

FOSSASAT2E14 (FEROX), 56936 was a payload satellite owned by Fossa Systems (ES) in LEO that was launched on Mon, 12 Jun 2023 UTC via a Falcon 9 launch vehicle from the Air Force Western Test Range (AFWTR). Payloads include a variety of satellites, spacecraft, and rockets equipped with specific instruments for various scientific and technological missions. These include communications satellites like Starlink; space stations such as the ISS; scientific satellites like the Hubble; Earth observation satellites from companies like Planet Labs, Umbra, and HawkEye 360; GPS; miniature CubeSats for education and research; and military/defense satellites.

Next visibility unknown
No visualization available: RSO Decayed
FOSSASAT2E14 (FEROX) details
NORAD ID56936
COSPAR ID
2023-084E
Orbit
Decayed
Last TLE update1 month ago
Origin
Flag of ESFossa Systems (ES / SPN)
ManufacturerFossa Systems
BusFlat Cubesat
MotorUnknown
Mass2 kg wet, 2 kg dry
Launch date (UTC)
2023-06-12 (1 year ago)
Launch vehicle
Falcon 9
Launch site
Air Force Western Test Range (AFWTR)
Object type
Payload
Rocket body
Debris
Radar Cross SectionSmall (<0.1 m²)
Predictive object data (real-time)
LatitudeUnknown
LongitudeUnknown
AltitudeUnknown
SpeedUnknown
Apparent Right ascensionUnknown
Apparent DeclinationUnknown
SunlitUnknown
Predictive observer data (real-time)
Local Sidereal Time22:00:55
AzimuthUnknown
ElevationUnknown
Doppler factorUnknown
Orbital elements
Apogee250.863 km
Perigee228.557 km
Semi-major axis6,617.847 km
Eccentricity0.0016853
Inclination97.4946°
RAAN271.1179°
Arg. of periapsis271.9898°
True anomaly88.13851°
Mean anomaly87.9455°
Mean motion4.03151 °/min
BSTAR0.004718
Period89.3 mins
Definitive object data (Epoch: 2024-05-24T03:38:38.408Z)
Latitude-0.00011°
Longitude-25.77762°
Altitude245.691 km
Speed7.76 km/s
True Right ascension18h 04m 28s
True Declination0° 00' 00"
Sunlit
Object was in full shadow at TLE epoch
TLE from 1 month ago
0 FOSSASAT2E14 (FEROX)
1 56936U 23084E   24145.15183343  .03831170  28780-1  47180-2 0  9991
2 56936  97.4946 271.1179 0016853 271.9898  87.9455 16.11452641 52977
Epoch: 2024-05-24T03:38Z
No data available

FOSSASAT2E14 (FEROX) Visibility forecast

Observer location: 39.9160978°, -105.1181434, 0m alt.

This satellite is decayed
Span
Click to sort rows by Start time (UTC) header in descending order
Start Az.
Max El. time (UTC)
Max El. Az.
Max El.
End time (UTC)
End Az.